Location: *
(50.3194°N, 7.1067°E)
Time: 03:31:58
(UTC+00:00)

Meteor 1-4 Rocket - Pass Details

Date: 22 September 2019
Orbit: 449 x 504 km, 81.2° (Epoch: 22 October)

Event Time Altitude Azimuth Distance (km) Brightness Sun altitude
Rises 18:00:16 0° 356° (N) 2,520 6.3 -5.6°
Reaches altitude 10° 18:02:37 10° 9° (N) 1,628 5.2 -5.9°
Maximum altitude 18:05:40 27° 69° (ENE) 929 3.5 -6.4°
Drops below altitude 10° 18:08:41 10° 129° (SE) 1,594 4.7 -6.9°
Enters shadow 18:10:08 - 139° (SE) 2,138 5.4 -7.1°
